sat.trackr.live / text

‹ back to catalog

2024-095C

NORAD 59812 · 2024-095C

PAYLOAD ACTIVE UNKNOWN

§ Identity

Operator
Country
PRC
Launch date
2024-05-21
Launch site
JSC
Launch vehicle
Mass (kg)
RCS (m²)

External: N2YO · Heavens-Above · Gunter

§ Orbital elements

Epoch: 2026-05-25T04:49:42.367584Z

Period
89.74 min
Inclination
97.5392°
Eccentricity
0.0009506
Mean motion
16.04665088 rev/d
Perigee alt
255.2 km
Apogee alt
267.8 km
Semi-major
6,639.7 km
B*
1.2539e-3
RAAN
251.7972°
Arg perigee
250.5009°
Mean anomaly
109.5245°
Rev number
11,264

§ Raw data

2024-095C1 59812U 24095C   26145.20118481  .00834048  35654-3  12539-2 0  99932 59812  97.5392 251.7972 0009506 250.5009 109.5245 16.04665088112640

JSON: /api/v1/satellites/59812 · /tle

For live sub-satellite position, see the globe view (requires WebGL).

§ Visibility from observer

Set your observer location to see the next 7 days of passes ≥ 10°. The values pass through the URL so the page stays shareable.

No JS? Fill the form by hand. The geolocation button needs JavaScript.